K7TUS-6 Weather Reports


Display with metric or nautical units.
time (UTC)temp
F
wind
direction
speed
MPH
gust
MPH
rain 1hr
in
rain 24hr
in
rain mn
in
humidity
%
barometer
mb
20260904150509 71 85 3.0 4.0 0.00 0.00 0.00 16 991.1
20260904054504 61 171 7.0 9.0 0.00 0.00 0.00 37 989.9
20260904053009 62 150 5.0 6.0 0.00 0.00 0.00 39 990.3
20260904031506 62 171 1.0 2.0 0.00 0.00 0.00 30 990.0
20260904025503 62 188 2.0 3.0 0.00 0.00 0.00 32 989.0
20260904014007 65 164 3.0 5.0 0.00 0.00 0.00 31 989.8
20260904005508 63 165 5.0 6.0 0.00 0.00 0.00 32 989.0
20260904003506 63 175 4.0 6.0 0.00 0.00 0.00 32 989.8
20260904002004 62 179 6.0 7.0 0.00 0.00 0.00 33 990.1
20260904000008 62 172 6.0 10.0 0.00 0.00 0.00 35 988.9
20260903234006 63 190 3.0 5.0 0.00 0.00 0.00 31 989.2
20260903232504 66 139 3.0 4.0 0.00 0.00 0.00 27 990.8
20260903231503 66 142 3.0 6.0 0.00 0.00 0.00 26 990.2
20260903231008 66 31 2.0 6.0 0.00 0.00 0.00 28 989.1
20260903225507 67 171 4.0 5.0 0.00 0.00 0.00 24 988.8
20260903224505 68 148 2.0 5.0 0.00 0.00 0.00 23 988.6
20260903221508 69 40 2.0 3.0 0.00 0.00 0.00 20 989.6
20260903221031 69 156 2.0 3.0 0.00 0.00 0.00 21 990.0
20260903215506 69 75 2.0 3.0 0.00 0.00 0.00 21 990.0
20260903214004 70 19 2.0 3.0 0.00 0.00 0.00 21 990.8
20260903212508 71 143 2.0 4.0 0.00 0.00 0.00 18 991.1
20260903211006 71 195 2.0 3.0 0.00 0.00 0.00 23 991.3
20260903205504 69 160 2.0 4.0 0.00 0.00 0.00 19 990.2
20260903201005 73 122 2.0 4.0 0.00 0.00 0.00 17 991.1
20260903195503 74 150 2.0 2.0 0.00 0.00 0.00 16 991.7
20260903193506 72 59 4.0 7.0 0.00 0.00 0.00 16 991.2
20260903192005 73 129 2.0 4.0 0.00 0.00 0.00 18 992.1
20260903184507 71 57 2.0 3.0 0.00 0.00 0.00 18 992.0
20260903183005 71 136 2.0 5.0 0.00 0.00 0.00 18 991.2
20260903182504 71 91 3.0 5.0 0.00 0.00 0.00 18 992.2
20260903175005 71 86 2.0 2.0 0.00 0.00 0.00 20 991.5
20260903171007 70 161 3.0 4.0 0.00 0.00 0.00 18 992.2
20260903164003 70 77 2.0 3.0 0.00 0.00 0.00 18 992.4
20260903162507 68 27 1.0 2.0 0.00 0.00 0.00 21 992.8
20260903154002 68 81 2.0 2.0 0.00 0.00 0.00 22 991.3